www.pogodaiklimat.ru

ПОГОДА в Уналашке, AK

  • Прогноз погоды в Уналашке
  • Монитор погоды в Уналашке
  • Климат в Уналашке

АРХИВ ПОГОДЫ в Уналашке

Время (UTC), дата Ветер
(напр.,м/с)
 
Видим.   Явления Облачность Т
(С)
Тd
(С)
f
(%)
Тe
(С)
Тes
(С)
Комфортность

P
(гПа)

Po
(гПа)
Тmin
(С)
Tmax
(С)
R
(мм)
SD
(см)
21:56 15.06 С  16 км    10/10 240 м  +8.9  +7.2  89  +5  +5    999.0  997.7         
22:28 15.06   16 км    10/10 240 м  +9.0  +7.0  87  +8  +8      997.7         
22:56 15.06 С  16 км    10/10 240 м  +9.4  +7.2  86  +6  +6    999.1  997.7  +8.3  +9.4     
23:18 15.06 нст  16 км    10/10 240 м  +10.0  +8.0  87  +9  +9      998.0         
23:56 15.06 нст  16 км    10/10 240 м  +9.4  +7.8  90  +7  +7    999.2  998.0         
00:56 16.06 С  16 км    10/10 240 м  +9.4  +7.8  90  +6  +6    999.4  998.0         
01:25 16.06 СВ  10 км  слабый дождь, дымка  10/10 60 м  +9.0  +8.0  93  +6  +6      998.4         
01:56 16.06   5 км  слабый дождь, дымка  10/10 60 м  +8.9  +7.8  93  +8  +8    999.6  998.4         
02:01 16.06 З  3 км  слабый дождь, дымка  10/10 360 м  +9.0  +8.0  93  +7  +7      998.4         
02:09 16.06 СЗ  3 км  слабый дождь, дымка  10/10 60 м  +9.0  +8.0  93  +6  +6      998.4         
02:56 16.06 С  6 км  слабый дождь, дымка  10/10 60 м  +8.9  +7.8  93  +5  +5    999.7  998.4         
03:39 16.06 С  3 км  слабый дождь, дымка  10/10 60 м  +9.0  +8.0  93  +7  +7      998.7         
03:56 16.06 СЗ  3 км  слабый дождь, дымка  10/10 300 м  +8.9  +7.8  93  +7  +7    1000.2  999.1         
04:11 16.06 С  10 км  слабый дождь, дымка  10/10 300 м  +9.0  +8.0  93  +7  +7      999.1         
04:22 16.06 С  16 км  слабый дождь  10/10 240 м  +9.0  +8.0  93  +8  +8      999.1         
04:38 16.06 С  16 км    10/10 210 м  +8.0  +8.0  100  +4  +4      999.1         
04:56 16.06 ЮВ  16 км  слабый дождь  10/10 210 м  +8.9  +7.8  93  +7  +7    1000.6  999.4  +8.3  +10.0  0.5   
05:13 16.06 ЮВ  16 км    10/10 210 м  +8.0  +8.0  100  +5  +5      999.4         
05:23 16.06 нст  16 км    10/10 210 м  +8.0  +8.0  100  +6  +6      999.4         
05:42 16.06 С  16 км  слабый дождь  10/10 210 м  +8.0  +8.0  100  +4  +4      999.7         
05:56 16.06 С  16 км    10/10 210 м  +8.3  +7.8  97  +5  +5    1001.0  999.7         
06:27 16.06 С  16 км    10/10 180 м  +8.0  +7.0  93  +5  +5      999.7         
06:56 16.06 С  16 км    10/10 780 м  +8.3  +7.2  93  +5  +5    1001.5  1000.1         
07:56 16.06   16 км    10/2 690 м
[средняя] 
+8.3  +7.2  93  +7  +7    1001.7  1000.4         
08:42 16.06   16 км    10/8 180 м
[средняя] 
+8.0  +7.0  93  +7  +7      1000.7         
08:56 16.06   16 км    10/10 180 м  +8.3  +7.2  93  +7  +7    1002.0  1000.7         
08:59 16.06   16 км    10/10 180 м  +8.0  +7.0  93  +7  +7      1000.7         
09:09 16.06   16 км    10/10 180 м  +8.0  +7.0  93  +7  +7      1000.7         
09:14 16.06   16 км    10/10 180 м  +8.0  +7.0  93  +7  +7      1000.7         
09:27 16.06   16 км    10/10 270 м  +8.0  +7.0  93  +7  +7      1000.7         
09:45 16.06 СЗ  16 км    10/10 330 м  +8.0  +7.0  93  +6  +6      1000.7         
09:56 16.06 СЗ  16 км    10/10 330 м  +8.3  +7.2  93  +5  +5    1002.0  1000.7         
10:12 16.06 С  16 км    10/10 330 м  +8.0  +7.0  93  +5  +5      1000.7         
10:23 16.06 С  16 км    10/10 330 м  +8.0  +7.0  93  +5  +5      1000.7         
10:39 16.06 В  16 км    10/10 270 м  +8.0  +7.0  93  +6  +6      1000.7         
10:56 16.06   16 км    10/10 270 м  +8.3  +7.2  93  +7  +7    1001.9  1000.7  +7.8  +8.9     
11:30 16.06   16 км  слабый дождь  10/10 300 м  +8.0  +7.0  93  +7  +7      1000.7         
11:42 16.06   16 км  слабый дождь  10/10 180 м  +8.0  +7.0  93  +7  +7      1000.7         
11:49 16.06   16 км  слабый дождь  10/10 180 м  +8.0  +7.0  93  +7  +7      1000.7         
11:56 16.06   16 км  слабый дождь  10/10 180 м  +8.3  +7.2  93  +7  +7    1002.1  1000.7         
12:37 16.06 В  16 км  слабый дождь  10/10 180 м  +8.0  +7.0  93  +6  +6      1000.7         
12:56 16.06   16 км    10/10 180 м  +7.8  +7.2  96  +7  +7    1002.1  1000.7         
13:01 16.06 ЮЗ  16 км    10/10 120 м  +8.0  +7.0  93  +6  +6      1000.7         
13:40 16.06   13 км    10/10 90 м  +8.0  +7.0  93  +7  +7      1001.1         
13:56 16.06   13 км  слабый дождь  10/10 90 м  +8.3  +7.2  93  +7  +7    1002.4  1001.1         
14:56 16.06   13 км    10/10 60 м  +8.3  +7.2  93  +7  +7    1002.8  1001.4         
15:19 16.06 СЗ  16 км    10/10 90 м  +8.0  +7.0  93  +6  +6      1001.8         
15:56 16.06   13 км    8/8 90 м  +8.3  +7.2  93  +7  +8    1003.1  1001.8         

 

Местоположение метеостанции Unalaska Airport: широта 53.9000 долгота -166.5333 высота над уровнем моря 7 м.

В архиве по умолчанию представлена погода в Уналашке за последние 1-2 суток. Обновление информации о фактической погоде в базе происходит ежечасно! Архивные данные за месяц целиком и за предыдущие месяцы Вы можете получить, выбрав интересующий диапазон дат из раскрывающегося списка и нажав кнопку "Ввод!".

Внимание! Архив погоды МЕТАР в базе сайта хранится не более 60 дней. Нет смысла пытаться выбрать более раннюю дату.

Внимание! Время в таблицах - всемирное. Для получения местного времени необходимо прибавить поправку, которая в Уналашке равна -9 ч.

Ветер - указаны скорость ветра в м/с и направление, откуда дует ветер: С - северный, СВ - северо-восточный, В - восточный, ЮВ - юго-восточный, Ю - южный, ЮЗ - юго-западный, З - западный, СЗ - северо-западный.
Видимость - горизонтальная дальность видимости в метрах или километрах. При видимости от 1 до 10 км при отсутствии осадков обычно наблюдается дымка, при ухудшении видимости до 1 км и менее - туман. В сухую погоду видимость может ухудшаться дымом, пылью или мглою.
Атмосферные явления - указаны явления, наблюдавшиеся в указанный момент времени.
Облачность - указаны через наклонную черту верхняя и нижняя облачность в баллах и высота нижней границы облаков в метрах. Внимание: облачность, как и прочие метеорологические величины в США измеряются автоматическими метеостанциями. Указанные значения в баллах носят условный характер и показывают процент времени, в течение которого, в среднем, лазерный луч высотомера отражался от облаков обратно.
T - Температура воздуха - температура, измеренная на высоте 2 м над землей.
Td - Температура точки росы - температура, при понижении до которой содержащийся в воздухе водяной пар достигнет насыщения.
f - Относительная влажность воздуха - влажноcть воздуха, измеренная на высоте 2 м над землей.
Te - Эффективная температура - температура, которую ощущает одетый по сезону человек в тени. Характеристика душности погоды. При расчете учитывается влияние влажности воздуха и скорости ветра на теплоощущения человека.
Tes - Эффективная температура на солнце - температура, которую ощущает человек, с поправкой на солнечный нагрев. Характеристика знойности погоды. Зависит от высоты солнца над горизонтом, облачности и скорости ветра. Ночью, в пасмурную погоду, а также при ветре 12 м/с и более поправка равна нулю.
P - Атмосферное давление - приведенное к уровню моря атмосферное давление.
Po - Атмосферное давление - измеренное на уровне метеостанции атмосферное давление.
Tmin - Минимальная температура - минимум температуры воздуха на высоте 2 м над землей.
Tmax - Максимальная температура - максимум температуры воздуха на высоте 2 м над землей.
R - Количество осадков - Количество выпавших осадков за 3 или 6 часов, мм.
SD - Снежный покров - Высота снежного покрова, см.